[[{"header":{"parameterUnit":"m.s-1","parameterCategory":1,"la1":30.2991,"la2":30.254,"lo1":-89.0895,"lo2":-89.0444,"dy":0.0017,"dx":0.0017,"nx":28,"ny":28,"refTime":"2026-02-04T09:00:00:Z","depth":0,"parameterNumber":2,"parameterNumberName":"U-component_of_WINDS"},"data":[0,0,0,0,0,0,0,0,0,0,0,0,0,0,0,0,0,0,0,0,0,0,0,0,0,0,0,0,0,0,0,0,0,0,0,0,0,0,0,0,0,0,0,0,0,0,0,0,0,0,0,0,0,0,0,0,0,0,2.5076,2.5077,0,2.5138,2.5139,2.514,2.5083,2.5081,2.5079,2.5076,2.5141,2.5145,2.5149,0,0,0,0,0,0,0,0,0,0,0,0,0,2.4912,2.4915,2.5076,2.5077,2.5078,2.5138,2.5139,2.514,2.5084,2.5081,2.5078,2.5075,2.514,2.5145,2.5149,0,0,0,0,0,0,0,0,0,0,0,0,0,2.498,2.4916,2.5076,2.5057,2.5056,2.5138,2.5139,2.514,2.5084,2.5081,2.5077,2.5074,2.5139,2.5144,2.515,2.5255,0,0,2.5168,2.517,0,0,0,0,0,0,0,0,2.4976,2.4986,2.5059,2.5058,2.5057,2.5099,2.5105,2.5179,2.5085,2.5074,2.5076,2.5072,2.513,2.5137,2.5156,2.5258,2.526,2.5168,2.5172,2.5174,2.5176,0,0,0,0,0,0,0,2.4971,2.4983,2.5101,2.506,2.5059,2.5046,2.5052,2.5119,2.5121,2.5074,2.507,2.5078,2.5129,2.515,2.5157,2.5261,2.5168,2.5173,2.5177,2.5179,2.5455,2.5458,0,0,0,0,0,0,2.4968,2.4979,2.5099,2.5103,2.5007,2.5052,2.5058,2.5089,2.512,2.5121,2.5081,2.5075,2.5142,2.515,2.5159,2.5286,2.5174,2.518,2.5183,2.5451,2.5456,2.546,0,0,0,0,0,0,2.4965,2.4979,2.5096,2.504,2.5054,2.5058,2.5094,2.5092,2.5114,2.5125,2.5125,2.5102,2.514,2.5151,2.5232,2.5287,2.5182,2.5188,2.5446,2.5452,2.5458,2.5539,0,0,0,0,0,0,2.496,2.4979,2.5018,2.5041,2.5057,2.5168,2.5097,2.5096,2.5124,2.5117,2.5145,2.5146,2.5138,2.5223,2.5238,2.5293,2.5192,2.5441,2.5449,2.5456,2.5531,2.5546,2.5559,0,0,0,0,0,2.4955,2.5038,2.502,2.5035,2.5106,2.5171,2.518,2.5168,2.5128,2.5168,2.5176,2.5145,2.5278,2.5232,2.5248,2.5306,2.5438,2.5447,2.5455,2.5525,2.5543,2.5559,0,0,0,0,0,0,2.5021,2.5041,2.5021,2.5114,2.5141,2.5161,2.5211,2.5188,2.5228,2.522,2.5204,2.5211,2.5297,2.5309,2.5257,2.541,2.5352,2.5364,2.5399,2.5417,2.5431,2.5427,2.5197,0,0,0,0,0,2.5047,2.5097,2.5111,2.5192,2.5207,2.5207,2.5235,2.5223,2.5251,2.5263,2.5276,2.5305,2.5353,2.5385,2.543,2.5532,2.5538,2.5579,2.5594,2.5605,2.5617,2.5674,2.5693,2.5488,2.5488,2.5488,0,0,2.51,2.5117,2.5149,2.5206,2.5226,2.528,2.5217,2.5276,2.5316,2.5272,2.535,2.536,2.5391,2.5484,2.5525,2.5496,2.5675,2.5616,2.5625,2.5631,2.5685,2.5704,2.5721,2.5494,2.5493,2.5492,0,0,2.5225,2.5241,2.5312,2.5333,2.5364,2.5363,2.538,2.5404,2.541,2.5487,2.5456,2.5503,2.5586,2.5611,2.5634,2.5769,2.5744,2.5784,2.5859,2.5915,2.5931,2.5946,2.5997,2.6015,2.5795,2.5795,2.5795,0,2.5287,2.5366,2.5351,2.5413,2.544,2.5401,2.5474,2.5495,2.5539,2.5559,2.5526,2.5631,2.5648,2.5747,2.5781,2.58,2.582,2.5782,2.593,2.5944,2.5958,2.6006,2.6025,2.58,2.5799,2.5799,2.5798,0,2.5443,2.5499,2.5552,2.5596,2.5628,2.5695,2.5691,2.5725,2.5711,2.5715,2.5796,2.5816,2.5865,2.5887,2.5874,2.5985,2.5967,2.5932,2.5874,2.5982,2.6028,2.6046,2.5807,2.5805,2.5804,2.5803,0,0,2.5613,2.5647,2.5668,2.5688,2.5719,2.5762,2.5828,2.5876,2.5908,2.5939,2.5995,2.6067,2.6036,2.6062,2.6051,2.61,2.6209,2.6059,2.606,2.6089,2.6335,2.6363,2.6385,2.6191,2.6194,2.6197,2.6334,0,2.5741,2.5855,2.5843,2.5952,2.6004,2.5969,2.6026,2.6052,2.6058,2.6104,2.6109,2.6161,2.6115,2.6131,2.6177,2.6186,2.6259,2.6175,2.6245,2.6248,2.6241,2.6408,2.6437,2.6565,2.6351,2.6354,2.6356,0,2.5906,2.5944,2.6058,2.6083,2.6105,2.6156,2.6201,2.6244,2.6274,2.6274,2.6304,2.6285,2.6353,2.6292,2.6385,2.6329,2.6357,2.6365,2.637,2.6378,2.631,2.6423,2.6606,2.6626,2.6383,2.6381,2.6379,0,2.6022,2.6101,2.618,2.6198,2.6229,2.6267,2.6281,2.6307,2.6337,2.6376,2.6396,2.6442,2.6468,2.6504,2.6499,2.6454,2.6596,2.6533,2.66,2.66,2.6633,2.6632,2.6825,2.6647,2.6646,2.6646,2.6645,0,2.6168,2.624,2.6233,2.6282,2.6362,2.6348,2.6428,2.6438,2.6462,2.6513,2.6484,2.6534,2.6522,2.6571,2.6567,2.6647,2.6658,2.6662,2.666,2.6666,2.6666,2.6686,2.6678,2.6651,2.665,2.6649,2.6648,0,2.6311,2.6309,2.6394,2.6416,2.6423,2.6482,2.6501,2.6548,2.6551,2.6616,2.6631,2.6636,2.6692,2.669,2.6753,2.675,2.685,2.6836,2.684,2.6839,2.6906,2.6901,2.7122,2.7151,2.6951,2.6953,2.6954,0,2.6406,2.6461,2.6489,2.6521,2.6538,2.659,2.6621,2.661,2.6643,2.6682,2.6725,2.6778,2.6821,2.6913,2.6923,2.6972,2.6961,2.7035,2.6969,2.6974,2.6966,2.6964,2.6971,2.7049,2.7051,2.7053,2.7055,0,2.6575,2.6572,2.6617,2.6663,2.6701,2.6737,2.6769,2.6797,2.6789,2.6829,2.6886,2.6919,2.6985,2.7039,2.7087,2.7102,2.7079,2.7075,2.7094,2.7102,2.7103,2.7106,2.6879,2.7071,2.7069,2.7068,2.7067,2.7067,2.6699,2.6747,2.6775,2.6827,2.685,2.6882,2.6928,2.6936,2.6984,2.7036,2.7026,2.7091,2.7121,2.7182,2.7202,2.7254,2.7228,2.7254,2.7261,2.7268,2.7278,2.7092,2.7262,2.7261,2.7261,2.726,2.726,0,2.6869,2.6886,2.6934,2.698,2.7022,2.6994,2.7029,2.7066,2.7124,2.7153,2.7196,2.7263,2.7316,2.733,2.7381,2.742,2.741,2.7434,2.7433,2.7437,2.7296,2.7277,2.7441,2.7441,2.7441,2.7441,2.7441,2.7441,2.6963,2.7044,2.7044,2.7136,2.7151,2.7215,2.7238,2.7267,2.7291,2.7367,2.7411,2.7419,2.7443,2.7496,2.7544,2.7547,2.7568,2.7597,2.7596,2.7465,2.7447,2.743,2.7411,2.7601,2.7601,2.7733,2.7734,2.7735]},{"header":{"parameterUnit":"m.s-1","parameterCategory":1,"la1":30.2991,"la2":30.254,"lo1":-89.0895,"lo2":-89.0444,"dy":0.0017,"dx":0.0017,"nx":28,"ny":28,"refTime":"2026-02-04T09:00:00:Z","depth":0,"parameterNumber":3,"parameterNumberName":"V-component_of_WINDS"},"data":[0,0,0,0,0,0,0,0,0,0,0,0,0,0,0,0,0,0,0,0,0,0,0,0,0,0,0,0,0,0,0,0,0,0,0,0,0,0,0,0,0,0,0,0,0,0,0,0,0,0,0,0,0,0,0,0,0,0,-1.4382,-1.438,0,-1.4219,-1.4217,-1.4215,-1.4224,-1.4226,-1.4229,-1.4231,-1.4057,-1.4051,-1.4044,0,0,0,0,0,0,0,0,0,0,0,0,0,-1.4695,-1.4689,-1.4382,-1.438,-1.4378,-1.4219,-1.4217,-1.4215,-1.4224,-1.4227,-1.4229,-1.4232,-1.406,-1.4052,-1.4043,0,0,0,0,0,0,0,0,0,0,0,0,0,-1.4548,-1.4687,-1.4382,-1.4364,-1.436,-1.422,-1.4217,-1.4214,-1.4223,-1.4227,-1.423,-1.4233,-1.4062,-1.4052,-1.4042,-1.3908,0,0,-1.4011,-1.4006,0,0,0,0,0,0,0,0,-1.4556,-1.4536,-1.4368,-1.4365,-1.4361,-1.4246,-1.4264,-1.4111,-1.4222,-1.4275,-1.4231,-1.4235,-1.4117,-1.4102,-1.4064,-1.39,-1.3892,-1.401,-1.4004,-1.3999,-1.3996,0,0,0,0,0,0,0,-1.4566,-1.4543,-1.4317,-1.4366,-1.4361,-1.4361,-1.4344,-1.4235,-1.4178,-1.4271,-1.4271,-1.4252,-1.4115,-1.4073,-1.406,-1.389,-1.401,-1.4001,-1.3995,-1.3991,-1.3606,-1.3602,0,0,0,0,0,0,-1.4582,-1.4552,-1.4323,-1.4313,-1.4469,-1.4353,-1.4334,-1.4279,-1.4179,-1.4167,-1.4249,-1.4253,-1.4089,-1.4072,-1.4054,-1.3889,-1.3999,-1.399,-1.3984,-1.361,-1.3605,-1.3601,0,0,0,0,0,0,-1.4588,-1.4561,-1.4329,-1.4432,-1.4403,-1.4343,-1.4282,-1.4274,-1.4232,-1.4163,-1.4152,-1.4217,-1.4091,-1.4068,-1.3944,-1.3883,-1.3985,-1.3976,-1.3615,-1.3608,-1.3603,-1.3559,0,0,0,0,0,0,-1.4597,-1.4564,-1.4513,-1.4431,-1.4397,-1.4225,-1.4278,-1.4268,-1.4215,-1.4219,-1.413,-1.4119,-1.4092,-1.396,-1.3934,-1.3871,-1.3968,-1.362,-1.3612,-1.3605,-1.3565,-1.3552,-1.354,0,0,0,0,0,-1.4608,-1.4506,-1.4511,-1.4483,-1.4334,-1.4221,-1.4201,-1.4175,-1.421,-1.4158,-1.4114,-1.4121,-1.3894,-1.3947,-1.3918,-1.3851,-1.3624,-1.3614,-1.3605,-1.3571,-1.3555,-1.3541,0,0,0,0,0,0,-1.4581,-1.4495,-1.4499,-1.4368,-1.4302,-1.4223,-1.4157,-1.4159,-1.408,-1.4086,-1.4055,-1.4034,-1.391,-1.3868,-1.3928,-1.3715,-1.3763,-1.3748,-1.3747,-1.373,-1.3718,-1.373,-1.3959,0,0,0,0,0,-1.456,-1.4478,-1.4407,-1.4297,-1.4264,-1.4216,-1.4166,-1.4152,-1.4081,-1.4053,-1.3999,-1.3928,-1.384,-1.3783,-1.3699,-1.356,-1.3539,-1.3499,-1.3487,-1.3477,-1.3463,-1.3384,-1.3365,-1.357,-1.3571,-1.3571,0,0,-1.4515,-1.4458,-1.4408,-1.4291,-1.4238,-1.4151,-1.4193,-1.4099,-1.4034,-1.4038,-1.3918,-1.3876,-1.3795,-1.3662,-1.3601,-1.3623,-1.3402,-1.3465,-1.3457,-1.3449,-1.3373,-1.3353,-1.3336,-1.3564,-1.3565,-1.3566,0,0,-1.4389,-1.4339,-1.4242,-1.4188,-1.4108,-1.4077,-1.4054,-1.3974,-1.3947,-1.3827,-1.3827,-1.3748,-1.3598,-1.354,-1.3491,-1.3342,-1.3345,-1.3315,-1.3249,-1.3173,-1.3157,-1.3142,-1.3087,-1.3068,-1.3303,-1.3302,-1.3302,0,-1.4343,-1.4215,-1.4191,-1.4097,-1.4045,-1.4046,-1.3947,-1.3895,-1.3791,-1.3753,-1.3781,-1.3592,-1.3538,-1.3391,-1.3355,-1.3315,-1.3286,-1.3325,-1.3161,-1.3146,-1.3132,-1.3079,-1.3059,-1.3299,-1.33,-1.33,-1.33,0,-1.4161,-1.4071,-1.4003,-1.3904,-1.3844,-1.3747,-1.3707,-1.3649,-1.3639,-1.3604,-1.3481,-1.3415,-1.3317,-1.3282,-1.3271,-1.3132,-1.3148,-1.3169,-1.3216,-1.311,-1.306,-1.3039,-1.3295,-1.3296,-1.3297,-1.3298,0,0,-1.4012,-1.3903,-1.3877,-1.3832,-1.3744,-1.3673,-1.3576,-1.3482,-1.3432,-1.336,-1.3275,-1.3149,-1.3167,-1.3111,-1.3093,-1.3027,-1.2911,-1.3054,-1.3052,-1.3028,-1.2751,-1.2736,-1.2713,-1.2913,-1.2909,-1.2906,-1.2757,0,-1.3876,-1.3706,-1.3682,-1.3531,-1.3447,-1.3447,-1.3362,-1.3297,-1.3262,-1.3184,-1.3143,-1.3054,-1.3085,-1.3051,-1.2985,-1.2939,-1.2854,-1.2949,-1.2832,-1.2828,-1.2851,-1.2687,-1.267,-1.2533,-1.2738,-1.2735,-1.2732,0,-1.3695,-1.362,-1.3461,-1.3383,-1.3347,-1.3271,-1.3183,-1.3109,-1.3034,-1.3013,-1.2951,-1.2941,-1.2837,-1.2891,-1.2746,-1.2811,-1.2762,-1.2731,-1.2725,-1.2712,-1.2772,-1.2667,-1.2489,-1.2467,-1.2701,-1.2704,-1.2706,0,-1.3601,-1.346,-1.3346,-1.3307,-1.3214,-1.3161,-1.3119,-1.3049,-1.2993,-1.2915,-1.2878,-1.2788,-1.2738,-1.2667,-1.2633,-1.2675,-1.2489,-1.254,-1.2466,-1.2467,-1.2426,-1.2428,-1.2235,-1.2397,-1.2397,-1.2397,-1.2398,0,-1.3451,-1.3353,-1.3302,-1.3232,-1.3122,-1.3094,-1.2985,-1.2945,-1.2882,-1.2802,-1.2796,-1.272,-1.268,-1.2598,-1.257,-1.2453,-1.243,-1.2408,-1.2401,-1.2407,-1.241,-1.2373,-1.2381,-1.2392,-1.2393,-1.2394,-1.2395,0,-1.3327,-1.3289,-1.3165,-1.3088,-1.3066,-1.2988,-1.292,-1.285,-1.2816,-1.2714,-1.2689,-1.2633,-1.2536,-1.2495,-1.2374,-1.2355,-1.2221,-1.2222,-1.2246,-1.2244,-1.2171,-1.2178,-1.1946,-1.1913,-1.2098,-1.2097,-1.2095,0,-1.3233,-1.3158,-1.3072,-1.302,-1.2977,-1.2891,-1.2835,-1.2805,-1.2746,-1.2655,-1.2596,-1.2499,-1.242,-1.2264,-1.221,-1.2118,-1.2115,-1.2041,-1.2101,-1.2109,-1.2111,-1.2116,-1.2107,-1.2029,-1.2027,-1.2026,-1.2024,0,-1.3069,-1.3054,-1.2975,-1.2888,-1.2822,-1.2752,-1.2683,-1.2639,-1.2597,-1.2531,-1.2433,-1.2372,-1.2249,-1.2152,-1.2056,-1.201,-1.2008,-1.2006,-1.1983,-1.1988,-1.2004,-1.1992,-1.2214,-1.2011,-1.2012,-1.2013,-1.2014,-1.2015,-1.2956,-1.2889,-1.2818,-1.2729,-1.2675,-1.261,-1.2541,-1.2498,-1.2416,-1.2316,-1.2302,-1.2196,-1.2121,-1.1993,-1.1943,-1.1857,-1.1876,-1.1844,-1.1835,-1.1827,-1.1821,-1.202,-1.184,-1.184,-1.184,-1.1841,-1.1841,0,-1.279,-1.2745,-1.2664,-1.2569,-1.2498,-1.2506,-1.243,-1.2369,-1.2277,-1.2209,-1.2131,-1.2017,-1.1922,-1.1862,-1.1765,-1.1708,-1.1705,-1.1684,-1.1686,-1.1675,-1.1812,-1.184,-1.1688,-1.1688,-1.1688,-1.1688,-1.1688,-1.1688,-1.2696,-1.2582,-1.2559,-1.2417,-1.2371,-1.2269,-1.2225,-1.2164,-1.211,-1.1983,-1.1905,-1.1867,-1.1801,-1.17,-1.1612,-1.1596,-1.156,-1.1537,-1.1522,-1.165,-1.1666,-1.1681,-1.1707,-1.153,-1.153,-1.1393,-1.1391,-1.139]}]]